Location: Buckeye Ditch
(40.9104°N, 122.9517°W)
Time: 12:01:18
(UTC+00:00)

Tiros 1 despin weight - Pass Details

Date: 26 May 2025
Orbit: 563 x 601 km, 48.2° (Epoch: 22 June)

Event Time Altitude Azimuth Distance (km) Brightness Sun altitude
Rises 15:20:00 0° 288° (WNW) 2,841 ? 26.9°
Reaches altitude 10° 15:22:50 10° 270° (W) 1,938 ? 27.4°
Maximum altitude 15:25:56 19° 226° (SW) 1,452 ? 28.0°
Drops below altitude 10° 15:29:02 10° 181° (S) 1,931 ? 28.6°
Sets 15:31:52 0° 163° (SSE) 2,828 ? 29.1°
